THORAD AGENA D DEB, 42533

Orbit data source: Space-Track

THORAD AGENA D DEB, 42533 is space debris in SSO originally from a launch on Wed, 08 Apr 1970 UTC launched from the Air Force Western Test Range (AFWTR). Debris objects in space refer to the collection of defunct objects orbiting the Earth. Examples of debris include non-operational satellites, rocket bodies, and fragments generated from explosions, collisions, or faulty payload assembly.

Loading next visibility...
Identifier
42533, 1970-025SP
Orbit
SSO
Country
Flag of USUS
Related business
Manufacturer
Unknown
Mission
Spacecraft
Bus & Motor
Unknown
Mass
Unknown
Launch date (UTC)
1970-04-08 (56 years ago)
Launch vehicle
Unknown
Launch site
Air Force Western Test Range (AFWTR)
Object type
Payload
Rocket body
Debris
Shape & HBR
Unknown shape, 0.1 m
Radar Cross Section
Small (<0.1 m²)

Expand to show TLE details & history
Last TLE update: 4 days ago

TLE from 4 days ago
0 THORAD AGENA D DEB
1 42533U 70025SP  26119.22114588  .00001773  00000-0  14161-2 0  9994
2 42533  99.6601  34.8420 0136931 106.3104 255.3161 13.88074467627106
Epoch: 2026-04-29T05:18Z
TLE epoch observation values (Epoch: 2026-04-29T05:18:27.004Z)
Latitude
0.00003°
Longitude
98.04426°
Altitude
964.894 km
Speed
7.356 km/s
True Right ascension
02h 19m 22s
True Declination
0° 00' 00"
Sunlit
Object was in daylight at epoch
Visualization orbit readout
Latitude
Unknown
Longitude
Unknown
Altitude
Unknown
Speed
Unknown
Apparent Right ascension
Unknown
Apparent Declination
Unknown
Sunlit
N/A
Visualization observer readout
Local Sidereal Time
17:30:26
Azimuth
Unknown
Elevation
Unknown
Doppler factor
Unknown
Orbital elements
Apogee altitude
1,032.742 km
Perigee altitude
832.527 km
Semi-major axis
7,310.771 km
Eccentricity
0.01369
Inclination
99.6601°
RAAN
34.842°
Arg. of periapsis
106.3104°
True anomaly
253.80497°
Mean anomaly
255.3161°
Eccentric anomaly
254.55986°
Mean motion
3.47215 °/min
Orbital period
103.68 mins
BSTAR
0.0014161

Documentation

Showing up to 5 results
|